Погода в Тернополе

Хотите узнать прогноз погоды в Тернополе? Тогда Вам сюда: Погода в Тернополе

Поиск расширенной информации на нашем сайте:

Полезная информация:

Новости сайта



02.01.2020
Опубликован Долгосрочный прогноз погоды по городам России и ближнего зарубежья на январь 2020 года.
Карты: Прогноз на январь и февраль 2020 года, Сравнение прогнозируемой аномалии приземной температуры воздуха на январь 2020 года по разным моделям.




Погода в Тернополе - сегодня

Время (UTC), дата Ветер
(°,м/с) 
Видим.   Явления Облачность Т
(°С)
Тd
(°С)
f(%) Тe
(°С)
Pmin
(гПа)
dP
(гПа)
Po
(мм)
O2
(г/м3)
Тmin Tmax R s Состояние
почвы
15 09.08.20 040 (СВ) 20000 м    6/4 1000 м верхняя 
[Cu hum|Ci]
+26 +15.6 53 +36  1015.9  -0.9  734  267           
18 09.08.20 030 (СВ) 10 км    4/3 1000 м верхняя 
[Sc|Ci]
+20.7 +15.2 71 +30  1016.8  0.2  734  272    +28       
21 09.08.20 тихо ()   10 км    8/0 средняя 
[Ac trans]
+19.3 +15.8 80 +30  1017  734  273           
00 10.08.20 010 (С) 10 км    5/0 средняя 
[Ac trans]
+18.6 +15.4 82 +29  1017.3  0.2  734  274           
03 10.08.20 тихо ()   10 км    3/0 средняя 
[Ac trans]
+17.2 +15 87 +26  1017.5  734  275           
06 10.08.20 030 (СВ) 10 км    3/0 средняя 
[Ac trans]
+20.4 +15 71 +30  1017.3  0.3  735  272  +17.1         
09 10.08.20 020 (С) 20000 м    4/3 600 м верхняя 
[Cu med, cong|Cc]
+24.9 +15.8 57 +36  1016.3  -0.4  734  268           
12 10.08.20 360 (С) 20000 м  осадки на расстоянии{ливн. осадки}  6/5 1000 м кучево-дожд., средняя 
[Cb calv|Ac cuf]
+25.7 +15.2 52 +35  1015.5  -0.7  734  267      0.0     
15 10.08.20 340 (С) 20000 м    4/3 1000 м средняя 
[Cu med, cong|Ac cuf]
+26.5 +13.6 45 +33  1014.8  -0.6  733  267           
18 10.08.20 200 (Ю) 10 км  осадки на расстоянии{ливн. осадки}  6/5 1000 м кучево-дожд., средняя 
[Cb cap|Ac cuf]
+19.8 +15.1 74 +30  1016.6  0.9  734  273    +27.4  0.0     
21 10.08.20 тихо ()   10 км  {ливн. осадки}  ясно 
+16.8 +14.7 87 +26  1017.4  0.4  734  276           
00 11.08.20 тихо ()   10 км  {ливн. осадки}  ясно 
+14.3 +13.2 93 +21  1017.8  734  279      0.1     
03 11.08.20 тихо ()   10 км  местами туман поземный  1/0 верхняя 
[Ci sp]
+12.3 +11.7 96 +16  1018.5  0.4  735  281           
06 11.08.20 тихо ()   10 км    3/0 верхняя 
[Ci fib]
+20.2 +16.4 79 +32  1017.8  0.4  735  272  +12.3  +2.8  0.1     
09 11.08.20 060 (СВ) 10 км    6/3 1000 м верхняя 
[Cu hum|Ci fib]
+25.2 +14.8 52 +34  1017.1  735  268           
12 11.08.20 320 (СЗ) 10 км    8/6 1000 м верхняя 
[Cu med, cong|Ci fib]
+25.8 +14.1 48 +33  1016.1  -0.9  734  268           
15 11.08.20 040 (СВ) 10 км  гроза, ливневой дождь  9/8 800 м кучево-дожд., средняя 
[Cb calv|Ac trans]
+17.2 +16 93 +28  1018.6  1.3  735  275           
18 11.08.20 300 (СЗ) 10 км  {гроза, ливн. осадки}  8/5 1000 м кучево-дожд., средняя 
[Cb calv|Ac trans]
+16.9 +15.4 91 +27  1017.5  -1.1  734  275    +26.7  11     
21 11.08.20 280 (З) 10 км    8/0 кучево-дожд., средняя 
[Cb calv|Ac trans]
+16.3 +15.1 93 +26  1017.9  0.3  735  276           
00 12.08.20 350 (С) 10 км    4/0 средняя 
[Ac trans]
+15 +13.9 93 +23  1017.7  -0.4  734  278           
03 12.08.20 330 (СЗ) 10 км    5/0 средняя 
[Ac trans]
+14.8 +13.6 93 +22  1017.7  734  278           
06 12.08.20 030 (СВ) 10 км    4/0 средняя 
[Ac trans]
+17 +14.6 86 +26  1018.4  735  276  +14.6  -2.1       
09 12.08.20 040 (СВ) 20000 м    3/3 600 м 
[Cu hum]
+20.5 +14 66 +28  1019  736  273           
12 12.08.20 010 (С) 20000 м    4/4 1000 м 
[Cu med, cong]
+22.6 +12.5 53 +28  1018.4  -0.3  736  271           
15 12.08.20 010 (С) 20000 м    1/1 1000 м 
[Cu hum]
+21.7 +9.1 45 +22  1018.4  -0.2  736  273           
Время (UTC), дата Ветер
(°,м/с) 
Видим.   Явления Облачность Т
(°С)
Тd
(°С)
f(%) Тe
(°С)
Pmin
(гПа)
dP
(гПа)
Po
(мм)
O2
(г/м3)
Тmin Tmax R s Состояние
почвы

Для получения пояснительной информации подведите курсор к названию столбца.

ПОГОДА в Тернополе - архив

Всё, что Вы хотите узнать о погоде в Тернополе - удобно и подробно!

Выберите нужную дату (начиная с 1 января 2019* года) и нажмите кнопку "Найти".
Будут отображены архивные сводки погоды по пункту Тернополь, начиная с указанной даты.


Отображать данные в формате CSV (для использования в таблицах Excel)


Внимание! Наш архив погоды предназначен исключительно для личного некоммерческого использования в познавательных целях. Если Вам необходимы официальные справки о состоянии погоды (для производственных, юридических, коммерческих и т.п. целей), обращайтесь в органы Росгидромета.

*Примечание: данная дата относится к архиву по метеостанциям СССР (Россия, СНГ, Балтия).
Архив по метеостанциям Зарубежной Европы и Азии (кроме Китая) хранится 10 дней, по другим регионам земного шара (Китай, Африка, Америка, Австралия, Океания) - 1 день.

Тернополь - район местоположения метеостанции


Название, широта, долгота, высота метеостанции:
Тернополь 49.5°ш. 25.7°д. 329 м над ур. моря [Украина]

Дополнительная информация

В oтличие oт бoльшинства пoгoдных сайтoв мы публикуем пoдрoбную метеoинфoрмацию в детальнoм прoфессиoнальнoм фoрмате.

Характеристики температуры и влажнoсти вoздуха измеряются на высoте 2 м в тени вдали oт зданий и деревьев.
Скoрoсть ветра измеряется на высoте 10 м (на урoвне рoста челoвека скoрoсть ветра ниже в 1.5-2 раза). Если метеoстанция нахoдится в гoрoде или в лесу, тo скoрoсть ветра занижена на 2-4 м/с пo сравнению с oткрытым местoм. Скoрoсть ветра над акватoриями крупных рек и oзёр, а также на вершинах хoлмoв на 2-5 м/с выше, чем в oбычных услoвиях.
Атмoсфернoе давление в разных тoчках местнoсти мoжет значительнo oтличаться oт давления на метеoстанции, в зависимoсти oт услoвий рельефа (при пoдъёме на 10 м давление пoнижается примернo на 1 мм рт.ст.).